Regional Weather Roundup
Issued by NWS Upton, NY

Current Version | Previous Version | Text Only | Print | Product List | Glossary Off
Versions: 1 2 3 4 5 6 7 8 9 10 11 12 13 14 15 16 17 18 19 20 21 22 23 24 25 26 27 28 29 30 31 32 33 34 35 36 37 38 39 40 41 42 43 44 45 46 47 48 49 50

000
ASUS41 KOKX 291605
RWROKX

REGIONAL WEATHER ROUNDUP
NATIONAL WEATHER SERVICE NEW YORK NY
1200 PM EDT TUE JUL 29 2014

NOTE: "FAIR" INDICATES FEW OR NO CLOUDS BELOW 12,000 FEET WITH NO
SIGNIFICANT WEATHER AND/OR OBSTRUCTIONS TO VISIBILITY.

NYZ071-072-176-178-NJZ106-104-291700-
NEW YORK CITY METRO AREA


CITY           SKY/WX    TMP DP  RH WIND       PRES   REMARKS
CENTRAL PARK   SUNNY     72  50  45 VRB7      29.89S
LAGUARDIA APRT MOSUNNY   73  51  46 NW12      29.86S
KENNEDY INTL   MOSUNNY   75  50  41 NW8       29.87S
NEWARK/LIBERTY MOSUNNY   74  51  44 NW12      29.86F
BRNX BOT. GARD   N/A     72  52  49 W17       29.87F
TETERBORO      MOSUNNY   76  52  43 N8        29.85F
$$

NYZ177-179-078>081-291700-
LONG ISLAND NEW YORK

CITY           SKY/WX    TMP DP  RH WIND       PRES   REMARKS
FARMINGDALE    MOSUNNY   72  54  53 NW8       29.86S
ISLIP          MOSUNNY   76  54  46 N8        29.84S
SHIRLEY        MOSUNNY   75  55  49 VRB6      29.86R
WESTHAMPTON    SUNNY     75  54  47 W10       29.86S
MONTAUK POINT    N/A     72  57  59 W9        29.85R
$$

NYZ052-065-067-291700-
HUDSON VALLEY

CITY           SKY/WX    TMP DP  RH WIND       PRES   REMARKS
WHITE PLAINS   MOSUNNY   70  53  54 NW8       29.86S
NEWBURGH       PTSUNNY   70  54  56 NW9       29.88S
MONTGOMERY     MOSUNNY   70  50  49 NW8       29.87S
POUGHKEEPSIE   MOSUNNY   72  53  51 NW6       29.85S
ALBANY         MOSUNNY   70  51  51 W14       29.86S
$$

NJZ001-105-106-008-010-013-015-019>022-104-291700-
NEW JERSEY

CITY           SKY/WX    TMP DP  RH WIND       PRES   REMARKS
NEWARK/LIBERTY MOSUNNY   74  51  44 NW12      29.86F
TETERBORO      MOSUNNY   76  52  43 N8        29.85F
CALDWELL       MOSUNNY   71  52  50 VRB7      29.88S
MORRISTOWN     MOSUNNY   72  54  53 NW7G14    29.88S
SOMERVILLE     SUNNY     73  52  47 VRB6      29.87S
LINDEN         FAIR      75  53  46 NW9G17    29.89S
SUSSEX         MOSUNNY   70  52  52 VRB5      29.89S
ANDOVER          N/A     68  51  54 VRB3      29.90S
TRENTON        SUNNY     71  54  54 NW7       29.89S
MILLVILLE      MOSUNNY   74  55  51 N8        29.90S
ATLANTIC CITY  MOSUNNY   75  56  51 NW7       29.89S
WRIGHTSTOWN    MOSUNNY   73  56  55 VRB5      29.87S
TOMS RIVER     SUNNY     73  52  46 N5        29.88S
BELMAR         SUNNY     73  54  49 N9G16     29.88S
$$

PAZ047>061-062-071-291700-
EASTERN PENNSYLVANIA

CITY           SKY/WX    TMP DP  RH WIND       PRES   REMARKS
PHILADELPHIA   MOSUNNY   74  52  46 NW10      29.90S
ALLENTOWN      MOSUNNY   71  51  49 NW10G20   29.90F
SCRANTON       PTSUNNY   70  47  43 N7        29.92F
$$

CTZ002-004>006-009-010-012-RIZ004-006-007-MAZ004-011-015-291700-
SOUTHERN NEW ENGLAND
 IN CT

CITY           SKY/WX    TMP DP  RH WIND       PRES   REMARKS
BRADLEY INTL   MOSUNNY   74  52  46 N8        29.82S
HARTFORD       PTSUNNY   72  52  49 NW5       29.83S
DANBURY        MOSUNNY   71  54  54 VRB6      29.87S
WTRBRY/OXFORD  NOT AVBL
BRIDGEPORT     PTSUNNY   75  54  47 VRB7      29.84S
MERIDEN        MOSUNNY   75  53  46 W10G17    29.84S
NEW HAVEN      MOSUNNY   75  54  47 NW6       29.84S
CHESTER        FAIR      72  54  53 NW10      29.85S
GROTON         SUNNY     75  56  51 N9        29.82R
WILLIMANTIC    SUNNY     72  54  53 W12       29.83S

 IN RI

CITY           SKY/WX    TMP DP  RH WIND       PRES   REMARKS
PROVIDENCE     MOSUNNY   76  58  53 VRB5      29.81S
BLOCK ISLAND   SUNNY     72  57  60 W14       29.83S
WESTERLY       SUNNY     76  56  49 W8        29.82S

 IN MA

CITY           SKY/WX    TMP DP  RH WIND       PRES   REMARKS
BOSTON         MOSUNNY   75  55  49 W9        29.79S
WORCESTER      MOSUNNY   68  54  60 NW10      29.84R
WESTFIELD      MOSUNNY   73  51  46 NW12      29.83R
PROVINCETOWN   SUNNY     72  57  60 CALM      29.81S
NANTUCKET      SUNNY     72  60  66 W8        29.82R
$$

ANZ330-335-338-340-345-350-353-355-291700-
COASTAL MARINE OBSERVATIONS


STATION/POSITION TIME  SKY/WX   TEMP    WIND        PRES    VSBY  WAVE
                                AIR SEA DIR/SP/G                  HT/PER
                 (UTC)          (F)     (DEG/KT/KT) (MB)    (MI)  (FT/S)
NY HARB ENTRANCE NOT AVBL
4S FIRE IS       NOT AVBL
23SW MTP         1600            69 70              1010.0          5/ 8
HUDSON CANYON    1600            69 74  310/  8/ 10 1011.2          4/ 8
EXECUTION ROCKS  1600            70 70  290/  8/ 10   N/A
WESTERN LI SOUND 1600            69     290/  4/  8   N/A           0
CENTRAL LI SOUND 1500            68 70  280/ 10/ 12   N/A           1/ 3
EASTERN LI SOUND 1500            70 68  260/ 10/ 12   N/A
ROBBINS REEF     1600            70     290/  9/ 13   N/A
$$


>>>>>>>>>>>>>>>>>>>>>>>>>>>> KEY <<<<<<<<<<<<<<<<<<<<<<<<<<<
>                                                          <
>     SKY/WX - SKY CONDITION/PRESENT WEATHER               <
>     TMP    - TEMPERATURE IN FAHRENHEIT                   <
>     DP     - DEWPOINT IN FAHRENHEIT                      <
>     RH     - RELATIVE HUMIDITY IN PERCENT                <
>     WIND   - DIRECTION AND SPEED IN MPH                  <
>     PRES   - MEAN SEA LEVEL PRESSURE IN INCHES OF HG     <
>     WCI    - WIND CHILL INDEX                            <
>     VSB    - VISIBILITY IN MILES                         <
>     HX     - HEAT INDEX                                  <
>     TC     - TEMPERATURE IN CELSIUS                      <
>     VRB    - VARIABLE WIND DIRECTION                     <
>                                                          <
>>>>>>>>>>>>>>>>>>>>>>>>>>>> KEY <<<<<<<<<<<<<<<<<<<<<<<<<<<




USA.gov is the U.S. government's official web portal to all federal, state and local government web resources and services.